SCP
0 0 0 0 0 0 0 0 0 0 0 0 0 0 0 0 0 1 1 1 1 1 3 4 4 3 2 2 1 1 2 2 2 2 1 1 1 1 1 1 1 1 1 1 1 1 0 0 0
0 0 0 0 0 0 0 0 0 0 0 0 0 0 0 0 0 1 1 1 1 2 3 4 4 3 2 2 1 1 2 2 2 2 1 1 1 1 1 1 1 1 1 1 1 1 1 0 0
0 0 0 0 0 0 0 0 0 0 0 1 1 0 0 0 0 1 2 1 1 1 2 4 4 4 3 2 2 2 2 2 2 2 1 1 1 1 1 1 1 1 1 1 1 1 1 1 1
0 0 1 0 0 0 0 0 0 0 0 1 1 0 0 0 0 1 2 1 1 1 2 4 4 4 3 3 2 2 2 2 2 2 2 1 1 1 1 1 1 1 1 1 1 1 1 1 1
1 1 1 0 0 0 0 0 0 0 0 0 0 0 0 0 1 1 1 1 1 1 2 3 4 4 4 3 3 2 2 2 2 2 2 1 1 1 1 1 1 1 1 1 1 1 1 1 1
1 1 0 0 0 0 0 0 0 0 0 1 0 0 0 0 1 1 1 1 1 1 3 4 4 4 4 3 3 2 2 2 2 2 2 1 1 1 1 1 1 1 1 1 1 1 1 1 1
1 1 0 0 0 0 0 0 0 0 1 1 1 0 0 0 1 1 1 1 1 2 3 4 4 3 3 3 3 2 2 2 2 2 2 1 1 1 1 1 1 1 1 1 1 1 1 1 1
0 0 0 0 0 0 0 0 0 0 1 1 1 1 0 1 1 1 1 1 1 2 3 4 4 3 3 2 2 2 2 2 2 2 1 1 1 1 1 1 1 1 1 1 1 1 1 1 1
0 0 0 0 0 0 0 0 0 0 1 1 1 1 1 1 1 1 1 2 2 2 3 4 4 3 3 2 2 2 2 1 1 1 1 1 1 1 0 0 1 1 1 1 1 1 1 1 1
0 0 0 0 0 0 0 0 0 0 1 1 1 1 1 1 1 1 2 2 2 3 3 4 4 4 3 3 3 3 2 2 1 1 1 1 1 1 0 0 1 1 1 1 1 1 1 1 1
0 0 0 0 0 0 0 0 0 0 0 1 1 1 1 1 1 2 2 2 2 2 3 3 4 4 4 4 4 4 3 2 2 1 1 1 1 1 1 1 1 1 1 1 1 1 1 1 1
0 0 0 0 0 0 0 0 0 0 0 1 1 1 2 2 1 2 2 2 2 2 2 2 3 3 4 4 4 4 4 3 2 1 1 1 1 0 0 1 1 1 1 1 1 1 1 1 1
0 0 0 0 0 0 0 0 0 0 0 1 1 2 2 1 1 1 2 2 2 2 2 2 2 2 3 3 4 4 4 3 3 2 1 1 1 0 0 1 1 1 1 1 1 1 1 1 1
0 0 0 0 0 0 0 0 0 0 0 1 1 2 2 1 1 1 2 2 2 2 2 2 2 2 2 3 4 4 4 4 3 2 1 1 1 1 1 1 1 1 1 1 1 1 1 1 1
0 0 0 0 0 0 0 0 0 0 0 1 1 2 1 1 1 1 1 2 2 2 2 2 2 2 2 2 3 4 4 4 3 2 1 1 1 1 1 1 1 1 1 1 1 1 1 1 1
0 0 0 0 0 0 0 0 0 0 0 1 1 1 1 1 1 1 1 1 2 2 2 2 2 2 2 2 3 4 5 4 3 2 2 1 1 1 1 1 1 1 1 1 1 1 1 1 1
0 0 0 0 0 0 0 0 0 0 0 0 1 1 1 1 1 1 1 1 1 2 2 2 2 2 2 2 3 4 4 4 3 2 2 1 1 1 1 1 1 1 1 1 1 1 1 1 1
0 0 0 0 0 0 0 0 0 0 0 0 1 1 1 1 1 1 1 1 1 2 2 2 2 2 2 2 2 3 4 4 3 2 2 1 1 1 1 1 1 1 1 1 1 1 1 0 0
0 0 0 0 0 0 0 0 0 0 0 0 1 1 1 1 1 1 1 1 1 2 2 2 2 2 2 2 2 2 3 3 3 2 2 1 1 1 1 1 1 1 1 1 1 1 1 0 0
0 0 0 0 0 0 0 0 0 0 0 0 0 0 1 1 1 1 0 0 1 1 2 2 2 2 2 2 2 2 2 2 2 2 2 1 1 1 1 1 1 1 1 1 1 1 1 0 0
0 0 0 0 0 0 0 0 0 0 0 0 0 0 0 0 1 0 0 0 1 1 1 1 1 1 2 2 2 2 2 2 2 2 1 1 1 1 1 1 1 1 1 1 1 1 1 1 0
0 0 0 0 0 0 0 0 0 0 0 0 0 0 0 0 0 0 0 0 0 0 0 0 0 1 1 2 2 3 2 2 2 2 1 1 1 1 1 1 1 1 1 1 2 1 1 1 1
0 0 0 0 0 0 0 0 0 0 0 0 0 0 0 0 0 0 0 0 0 0 0 0 0 0 1 1 2 3 3 3 2 2 2 2 2 2 2 2 1 1 1 1 1 1 1 1 1
0 0 0 0 0 0 0 0 0 0 0 0 0 0 0 0 0 0 0 0 0 0 0 0 0 0 0 0 1 2 3 3 3 3 3 3 2 2 2 2 2 2 1 1 1 1 1 1 1
0 0 0 0 0 0 0 0 0 0 0 0 0 0 0 0 0 0 0 0 0 0 0 0 0 0 0 0 0 1 2 3 4 4 4 4 3 3 2 2 1 1 1 1 0 0 0 1 1
0 0 0 0 0 0 0 0 0 0 0 0 0 0 0 0 0 0 0 0 0 0 0 0 0 0 0 0 0 0 1 3 4 4 5 4 3 2 2 2 1 1 1 0 0 0 0 0 0
0 0 0 0 0 0 0 0 0 0 0 0 0 0 0 0 0 0 0 0 0 0 0 0 0 0 0 0 0 0 1 2 4 5 5 4 2 2 1 1 1 1 1 0 0 0 0 0 0
0 0 0 0 0 0 0 0 0 0 0 0 0 0 0 0 0 0 0 0 0 0 0 0 0 0 0 0 0 0 1 3 4 4 3 2 1 1 1 1 1 1 1 0 0 0 0 0 0
0 0 0 0 0 0 0 0 0 0 0 0 0 0 0 0 0 0 0 0 0 0 0 0 0 0 0 0 0 1 2 3 3 3 2 1 0 0 1 1 1 1 1 0 0 0 0 0 0
0 0 0 0 0 0 0 0 0 0 0 0 0 0 0 0 0 0 0 0 0 0 0 0 0 0 0 0 1 2 2 3 2 1 1 0 0 0 1 1 1 1 1 0 0 0 0 0 0
Wind_Speed
6 4 3 3 5 4 6 4 2 3 3 2 1 1 1 2 2 5 5 4 5 7 7 8 7 7 7 8 8 8 8 9 9 9 9 9 9 9 8 8 9 9 9 9 9 10 10 10 10
4 3 3 4 6 7 6 5 5 2 3 3 2 1 2 4 4 6 4 4 5 7 6 7 8 7 7 7 7 8 8 8 8 8 8 8 8 8 8 8 8 8 8 8 9 9 9 9 9
2 3 3 4 6 7 6 4 3 3 3 2 3 2 2 3 3 4 4 5 6 7 6 7 7 7 7 7 7 7 7 7 7 7 7 7 7 7 7 7 7 7 7 8 8 8 8 8 7
2 3 3 5 8 5 3 2 3 6 4 2 2 5 4 4 3 3 4 6 7 7 6 7 6 7 7 7 7 7 7 7 7 6 7 7 7 7 7 7 7 7 7 7 7 7 7 7 6
2 3 6 7 8 5 2 1 3 4 4 3 2 4 5 4 4 4 5 6 6 6 6 7 6 6 6 7 7 6 6 7 6 6 6 6 6 6 6 6 6 6 6 6 6 6 6 6 6
3 4 7 10 9 5 4 3 4 3 3 3 2 4 5 4 4 4 5 5 6 6 6 6 6 6 6 6 6 5 6 6 6 6 6 6 6 6 6 5 5 6 6 5 5 5 5 5 5
4 4 8 9 9 7 4 3 4 4 3 2 1 3 5 4 4 4 5 5 6 6 5 5 5 5 6 6 6 5 5 6 6 6 5 5 5 5 6 5 5 5 5 5 5 4 5 4 4
2 3 7 9 9 7 4 3 1 3 2 1 1 2 3 3 3 5 6 6 6 5 5 5 4 4 4 5 5 5 5 6 6 6 5 5 4 5 4 4 4 4 4 4 4 4 4 4 4
3 6 8 9 8 6 4 5 2 1 3 2 1 3 3 5 5 6 5 5 4 4 3 3 3 3 3 3 4 4 5 5 5 5 5 3 3 3 3 4 3 3 3 3 4 4 3 3 3
4 7 8 4 3 3 4 3 4 5 4 3 3 3 5 6 6 5 5 5 4 3 3 2 3 3 3 2 3 2 3 3 2 2 3 2 2 2 2 4 3 2 2 3 3 3 4 3 3
4 5 4 2 1 2 3 2 2 5 4 4 4 5 5 5 5 5 4 4 3 3 2 2 2 3 2 2 2 1 1 2 2 2 2 1 1 1 1 2 2 2 2 2 3 4 2 2 1
4 2 2 2 1 2 3 3 2 4 2 0 2 5 5 5 5 4 4 3 3 3 2 2 1 2 2 2 1 1 1 1 1 1 1 1 1 1 1 1 1 1 1 1 1 2 2 2 3
5 4 2 2 2 1 2 4 3 4 2 2 4 5 5 5 4 3 2 2 2 2 1 1 1 1 1 2 1 1 1 1 1 1 1 1 1 1 1 1 1 1 1 1 1 2 2 3 3
4 4 3 2 2 2 4 4 4 4 4 4 5 5 4 4 3 2 2 2 2 1 1 0 0 0 1 1 2 2 2 1 1 1 1 1 1 1 1 1 1 1 1 2 2 2 2 2 3
5 5 4 3 4 3 4 6 7 5 5 5 5 4 4 3 2 2 1 1 1 1 1 0 1 0 1 2 1 1 1 2 1 1 2 1 1 1 1 1 1 1 2 2 2 2 3 2 3
5 6 6 4 4 4 7 9 5 5 7 7 5 5 4 2 1 1 1 1 1 1 1 0 0 1 1 1 2 1 1 2 1 1 1 2 2 2 2 2 2 1 2 2 2 2 2 2 3
6 7 8 5 4 4 7 8 4 5 7 7 6 5 5 3 2 1 1 1 1 1 0 0 0 0 1 1 1 1 1 1 1 1 1 1 2 2 2 2 2 2 2 2 2 2 2 3 3
8 8 7 7 4 6 9 9 5 6 8 8 7 6 6 5 3 2 1 1 1 1 1 1 1 1 1 0 0 0 0 0 1 1 1 1 2 2 2 2 2 2 2 2 2 3 3 3 3
5 6 7 5 2 6 10 11 8 7 9 9 8 8 7 6 4 2 1 1 1 1 1 1 1 1 1 0 1 1 1 1 1 1 1 1 2 2 2 2 2 2 3 3 3 3 3 3 2
6 6 6 3 2 5 8 11 9 8 10 10 9 9 8 6 5 3 2 2 1 1 1 1 0 0 1 1 1 1 1 1 1 1 1 1 2 2 2 2 2 3 2 3 3 3 3 2 2
6 7 6 4 2 4 6 9 9 7 8 8 8 8 8 7 6 5 3 2 1 1 0 0 0 0 1 1 1 1 0 1 0 1 1 1 2 2 2 3 3 3 2 3 3 4 5 3 3
6 4 4 4 5 3 4 7 6 7 7 9 9 8 8 7 6 5 4 3 2 1 0 0 0 0 0 1 1 1 1 1 1 1 1 2 1 2 2 2 3 3 3 3 4 4 4 5 4
3 2 3 4 4 4 5 7 5 5 8 9 8 8 7 6 5 5 4 3 2 1 0 0 0 0 0 1 1 1 2 1 1 1 1 2 1 2 2 3 3 3 3 4 4 4 5 4 5
5 4 2 2 3 7 7 8 7 5 6 5 6 6 6 4 4 3 3 2 1 1 0 0 1 1 1 1 1 1 1 1 1 1 2 2 1 2 2 3 3 3 3 4 4 4 6 5 5
5 4 3 4 6 6 4 8 7 1 2 4 4 4 3 3 3 3 2 2 1 1 1 0 0 0 1 2 2 2 2 2 3 2 2 2 2 2 2 3 3 3 4 4 4 4 5 5 5
7 6 5 5 5 3 4 9 3 1 1 2 2 2 2 3 3 2 1 1 1 1 1 1 1 1 1 1 2 2 1 2 2 3 2 2 2 3 3 3 3 4 4 4 4 3 4 4 4
6 6 1 0 1 4 6 6 5 2 2 2 2 2 2 1 1 1 1 1 1 1 1 1 1 1 1 1 2 2 2 2 3 3 3 2 2 3 4 4 3 3 4 4 4 4 4 4 4
2 5 4 4 5 6 5 6 4 4 3 2 2 1 1 1 1 1 1 1 1 1 1 1 1 2 2 2 2 2 2 2 3 3 3 3 3 3 4 4 4 4 4 4 4 4 4 5 5
5 5 4 3 3 5 5 4 0 3 3 3 2 1 1 1 1 1 1 1 1 0 0 1 1 2 2 2 2 2 2 2 3 2 3 3 3 3 4 4 4 4 4 4 4 4 5 5 6
4 6 7 5 5 5 5 4 2 1 1 1 1 1 2 2 1 1 1 0 1 1 1 1 1 2 2 2 2 2 2 2 2 3 3 3 3 3 4 4 4 4 4 4 4 5 5 5 6
Wind_Direction
319 306 259 233 216 215 221 195 187 161 157 94 76 164 141 64 14 75 81 115 121 136 136 137 129 127 126 123 125 124 120 115 112 113 116 117 116 112 111 109 107 104 100 99 100 98 96 95 94
312 283 231 227 228 213 204 197 191 154 102 121 127 146 127 92 52 80 101 111 129 130 133 130 123 123 123 123 123 127 125 121 117 116 115 115 116 117 116 113 110 106 103 103 103 101 99 97 96
276 270 236 214 224 224 197 169 175 132 121 156 132 78 53 70 78 84 83 124 129 126 127 115 116 116 115 116 119 122 124 124 121 119 117 117 115 116 119 117 113 110 106 105 105 104 103 101 99
238 204 217 225 215 224 226 140 149 154 145 120 148 120 96 49 35 67 107 131 130 125 125 117 112 113 111 110 109 115 119 122 124 124 124 122 116 111 110 113 116 117 112 108 106 107 105 105 107
235 219 205 214 219 208 215 184 174 174 160 136 157 126 110 71 49 88 119 129 129 124 116 116 106 109 111 111 108 108 112 117 117 119 120 121 122 118 112 110 112 117 117 115 112 109 107 106 109
194 217 217 215 209 199 199 200 193 186 154 142 156 141 112 76 76 99 119 126 125 119 113 108 97 96 102 107 104 106 110 116 115 111 111 112 118 122 121 120 121 117 118 117 116 115 114 110 109
212 210 225 220 211 205 198 195 205 193 177 150 190 150 130 98 87 113 125 124 118 115 113 111 116 111 102 96 90 93 97 102 106 103 100 102 105 115 119 120 121 123 120 118 115 117 113 111 114
244 208 218 220 217 212 184 181 202 230 176 85 258 168 145 130 125 129 123 118 113 109 111 115 118 121 125 119 91 86 89 90 94 99 91 90 101 106 114 117 111 121 126 126 125 128 123 111 107
219 218 219 216 217 206 178 181 147 111 136 123 65 34 67 122 136 129 123 119 117 109 109 116 118 117 122 123 111 106 97 91 103 109 100 118 139 135 129 103 98 116 125 133 137 137 131 136 130
207 220 223 223 227 189 168 186 165 170 169 163 136 89 105 126 133 133 135 140 141 137 129 123 122 120 122 119 129 138 130 126 128 131 138 144 141 130 126 105 92 108 129 145 144 153 172 202 178
197 222 202 189 199 191 177 179 197 204 203 204 184 153 143 143 143 146 151 149 153 143 120 122 130 137 137 132 134 136 142 141 145 137 145 157 150 147 157 153 147 158 177 178 167 189 201 207 203
178 195 204 191 180 202 195 180 194 236 237 304 170 157 158 159 159 164 166 157 150 145 129 105 100 140 153 153 156 155 156 162 158 159 164 181 175 176 178 191 188 187 190 200 212 224 213 219 219
193 180 176 168 143 157 172 193 202 228 233 174 158 159 169 170 170 172 173 160 152 143 130 127 127 120 171 169 175 174 175 180 178 179 182 198 200 198 196 212 204 212 222 217 241 243 235 229 224
168 163 169 200 213 223 203 211 215 220 197 181 170 170 173 169 162 159 171 175 171 168 139 215 190 182 193 188 188 185 189 191 195 188 190 205 214 209 216 220 223 225 244 247 248 255 249 242 233
163 171 190 214 219 212 211 226 224 198 190 191 186 179 174 171 169 177 192 206 200 188 146 142 266 277 238 210 202 201 196 196 199 205 206 209 231 226 220 223 227 240 246 246 251 255 253 247 242
178 198 209 191 211 210 226 238 197 179 189 196 194 189 186 182 189 196 189 199 207 193 166 159 306 310 272 250 213 208 205 197 202 211 213 224 230 241 230 225 228 241 241 243 247 252 258 248 251
192 211 215 195 198 206 222 244 188 185 199 205 203 201 199 199 212 214 194 141 150 188 169 123 38 1 314 315 263 200 202 195 201 209 216 230 236 243 240 231 229 226 229 235 245 253 260 261 262
197 209 213 211 186 218 225 239 220 206 213 218 214 212 212 213 218 213 189 130 117 99 86 82 39 5 0 30 360 140 110 194 202 212 240 235 231 240 239 238 234 228 227 229 234 246 256 260 270
200 211 223 223 222 235 238 246 242 224 222 224 220 216 217 218 212 191 185 158 131 98 76 57 40 20 354 318 308 273 260 263 246 230 253 245 242 236 232 239 239 236 230 231 236 241 253 258 266
198 212 224 221 229 250 256 258 249 230 227 228 226 221 217 213 207 201 200 188 170 136 101 75 32 358 328 318 315 290 272 271 280 274 248 247 245 247 239 232 236 238 239 235 234 236 239 244 239
216 224 223 224 240 244 269 256 229 216 220 224 228 224 219 215 212 209 206 200 173 147 157 201 55 311 326 342 334 302 219 217 242 286 276 268 259 243 253 248 241 238 234 235 237 233 232 235 231
222 223 219 213 226 237 244 265 226 207 215 218 217 218 220 214 213 209 207 205 204 200 170 216 179 133 338 315 284 280 258 254 271 278 289 298 288 266 252 253 247 242 235 235 238 236 239 236 232
193 163 205 220 228 250 225 250 246 204 227 220 213 213 214 214 213 211 209 204 208 180 127 79 59 82 125 262 264 266 274 278 276 281 291 311 309 302 279 260 255 251 246 241 242 242 242 236 234
147 139 132 195 220 242 219 230 253 207 222 219 209 209 208 209 210 209 207 200 190 159 107 50 53 16 346 301 281 283 281 278 263 274 287 301 311 302 300 287 267 258 254 246 242 242 241 239 239
189 182 198 205 214 234 172 230 252 220 230 243 237 225 216 211 208 203 203 202 198 186 174 222 206 319 335 318 297 292 278 268 260 263 266 288 299 294 294 298 283 270 260 255 248 241 241 240 240
195 207 219 230 232 224 197 235 247 59 291 259 249 235 217 203 200 204 215 223 215 212 213 231 250 284 298 305 311 311 294 283 282 276 274 274 282 293 297 289 286 283 272 260 249 244 242 240 240
177 203 247 182 300 255 231 248 264 220 215 201 188 179 202 213 214 219 221 234 242 226 239 247 254 274 294 304 303 302 313 300 291 287 279 278 284 294 296 291 284 279 277 267 255 247 247 244 239
251 157 169 199 219 240 240 241 237 204 203 176 179 200 234 254 273 267 255 266 283 277 260 264 268 277 299 313 313 304 296 289 288 292 295 295 294 291 292 289 288 287 279 272 260 253 254 254 251
171 179 197 200 252 251 251 239 157 215 195 198 210 247 286 284 271 265 295 316 326 312 278 282 290 295 310 319 313 306 300 297 296 294 296 300 302 300 293 292 290 289 287 278 267 260 257 253 253
238 212 195 208 213 235 263 267 81 219 182 206 252 298 318 312 296 276 285 292 294 296 305 308 302 300 306 312 307 310 309 303 303 305 305 302 299 300 301 300 295 290 290 285 274 268 262 255 255